EST,Max TemperatureF,Mean TemperatureF,Min TemperatureF,Max Dew PointF,MeanDew PointF,Min DewpointF,Max Humidity, Mean Humidity, Min Humidity, Max Sea Level PressureIn, Mean Sea Level PressureIn, Min Sea Level PressureIn, Max VisibilityMiles, Mean VisibilityMiles, Min VisibilityMiles, Max Wind SpeedMPH, Mean Wind SpeedMPH, Max Gust SpeedMPH,PrecipitationIn, CloudCover, Events, WindDirDegrees
2011-12-1,60,48,37,41,36,33,89,70,38,30.38,30.28,30.14,10,10,10,8,3,,0.00,0,,322
2011-12-2,62,48,33,40,35,30,100,76,30,30.47,30.41,30.36,10,8,1,6,1,,0.00,0,Fog,308
2011-12-3,66,50,33,49,38,34,100,85,46,30.52,30.47,30.44,10,6,0,9,3,,0.00,0,Fog,342
2011-12-4,70,60,50,57,52,45,89,78,61,30.43,30.36,30.29,10,10,9,10,7,,0.00,4,,13
2011-12-5,71,64,57,62,57,53,100,88,73,30.27,30.19,30.15,10,5,0,8,2,,0.12,6,Rain,61
2011-12-6,75,64,53,66,57,52,100,92,67,30.16,30.13,30.04,10,4,0,12,1,18,0.01,4,Fog,133
2011-12-7,75,60,44,63,54,34,90,76,61,30.09,29.91,29.75,10,8,1,23,11,40,0.14,4,Rain,192
2011-12-8,55,47,39,38,32,26,89,62,33,30.31,30.25,30.11,10,10,10,13,7,,0.00,0,Rain,320
2011-12-9,69,54,39,50,43,34,86,69,47,30.28,30.23,30.17,10,10,10,8,4,,0.00,3,,330
2011-12-10,53,48,43,48,42,34,86,72,57,30.40,30.30,30.19,10,10,10,10,5,,0.01,5,Rain,348
2011-12-11,57,50,42,37,33,31,68,54,47,30.47,30.42,30.38,10,10,10,15,11,25,0.00,4,,353
2011-12-12,48,45,42,46,40,32,93,81,52,30.46,30.40,30.35,10,8,4,15,10,,0.27,7,Rain,341
2011-12-13,66,54,42,50,44,38,93,76,47,30.45,30.40,30.36,10,9,2,10,7,,0.00,0,,337
2011-12-14,66,54,42,53,46,41,96,80,52,30.41,30.35,30.32,10,9,0,5,1,,0.00,1,Fog,86
2011-12-15,72,59,46,56,48,45,100,88,57,30.32,30.27,30.20,10,5,0,10,1,,0.01,1,Fog,145
2011-12-16,75,62,50,57,52,46,94,81,48,30.23,30.19,30.14,10,8,1,9,3,,0.01,1,Fog,191
2011-12-17,64,54,44,55,50,43,93,77,52,30.23,30.16,30.11,10,10,2,13,7,,0.00,2,,270
2011-12-18,60,50,39,45,36,30,93,69,35,30.40,30.30,30.22,10,10,9,12,4,,0.00,0,,302
2011-12-19,64,50,35,51,41,32,100,85,56,30.37,30.31,30.25,10,6,0,9,1,,0.00,0,Fog,105
2011-12-20,72,58,44,55,47,42,93,85,53,30.27,30.22,30.15,10,6,1,9,1,16,0.01,3,,139
2011-12-21,70,62,53,61,57,50,94,83,71,30.16,30.11,30.05,10,9,2,13,4,26,0.02,3,Rain,153
2011-12-22,78,70,62,63,60,57,90,77,54,30.14,30.08,30.03,10,10,10,12,6,20,0.00,4,,145
2011-12-23,71,66,59,63,57,49,94,76,51,30.22,30.12,30.04,10,9,2,8,4,,0.00,7,Rain,209
2011-12-24,62,55,48,49,44,40,86,71,49,30.40,30.34,30.22,10,10,10,13,7,,0.00,0,,19
2011-12-25,60,52,45,52,48,40,96,86,64,30.37,30.30,30.24,10,9,5,10,4,,0.25,6,Rain,330
2011-12-26,57,51,45,49,41,31,93,72,36,30.35,30.27,30.19,10,9,5,14,7,,0.00,1,,356
2011-12-27,68,60,51,63,53,34,94,77,48,30.14,29.89,29.75,10,8,2,26,11,36,0.20,6,Rain,179
2011-12-28,55,46,37,36,33,30,86,61,38,30.13,30.06,29.96,10,10,10,18,11,30,0.00,0,,237
2011-12-29,61,48,34,42,35,30,89,70,34,30.17,30.11,30.07,10,10,10,12,3,17,0.00,2,,171
2011-12-30,63,50,36,51,43,34,93,74,48,30.19,30.11,30.05,10,10,10,10,4,16,0.00,1,,159
2011-12-31,71,58,45,53,45,35,88,68,28,30.19,30.10,30.03,10,10,9,13,7,20,0.00,1,,207